This is the latest recevied weather packets stored in our database for station/object KC1HBM. If no packets are shown the sender has not sent any weather packets the latest 10 day(s).
| Time | Temp. | Humidity | Pressure | Rain* | Wind** | Luminosity | Snow |
|---|---|---|---|---|---|---|---|
| 1777521132 | 6.11° C | 99% | 1010.9 hPa | 3.05 mm | - | 0 W/m² | - |
| 1777520829 | 6.11° C | 99% | 1011.1 hPa | 1.78 mm | - | 0 W/m² | - |
| 1777520526 | 6.11° C | 99% | 1011.3 hPa | 1.27 mm | - | 0 W/m² | - |
| 1777520222 | 6.11° C | 99% | 1011.1 hPa | 3.05 mm | - | 0 W/m² | - |
| 1777519921 | 6.11° C | 99% | 1011.1 hPa | 4.83 mm | - | 0 W/m² | - |
| 1777519617 | 6.11° C | 99% | 1011.3 hPa | 4.32 mm | - | 0 W/m² | - |
| 1777519313 | 6.11° C | 99% | 1011.1 hPa | 1.27 mm | - | 0 W/m² | - |
| 1777519010 | 6.11° C | 99% | 1011.1 hPa | 0 mm | - | 0 W/m² | - |
| 1777518706 | 6.11° C | 99% | 1011.4 hPa | 0 mm | - | 0 W/m² | - |
| 1777518403 | 6.11° C | 99% | 1011.6 hPa | 0 mm | - | 0 W/m² | - |
| 1777518098 | 6.11° C | 99% | 1011.4 hPa | 1.78 mm | - | 0 W/m² | - |
| 1777517795 | 6.11° C | 99% | 1011.5 hPa | 1.78 mm | - | 0 W/m² | - |
| 1777517491 | 6.11° C | 99% | 1011.6 hPa | 0 mm | - | 0 W/m² | - |
| 1777517189 | 6.11° C | 99% | 1011.6 hPa | 1.27 mm | - | 0 W/m² | - |
| 1777516887 | 6.11° C | 99% | 1011.5 hPa | 1.27 mm | - | 0 W/m² | - |
| 1777516584 | 6.11° C | 99% | 1011.8 hPa | 0 mm | - | 0 W/m² | - |
| 1777516280 | 6.11° C | 99% | 1011.8 hPa | 1.78 mm | - | 0 W/m² | - |
| 1777515976 | 6.11° C | 99% | 1011.8 hPa | 1.78 mm | - | 0 W/m² | - |
| 1777515673 | 6.11° C | 99% | 1011.6 hPa | 0 mm | - | 0 W/m² | - |
| 1777515370 | 6.11° C | 99% | 1012 hPa | 0 mm | - | 0 W/m² | - |
| 1777515066 | 6.11° C | 99% | 1012.1 hPa | 0 mm | - | 0 W/m² | - |
| 1777514763 | 6.11° C | 99% | 1012.1 hPa | 0 mm | - | 0 W/m² | - |
| 1777514460 | 6.11° C | 99% | 1012.3 hPa | 0 mm | - | 0 W/m² | - |
| 1777514156 | 6.11° C | 99% | 1012.1 hPa | 0 mm | - | 0 W/m² | - |
| 1777513854 | 6.11° C | 99% | 1012 hPa | 1.78 mm | - | 0 W/m² | - |
* Rain latest hour (hover to see other rain measurements)
** Current wind speed in m/s (hover to see current wind gust speed)